This is the latest recevied weather packets stored in our database for station/object DL9LA-13. If no packets are shown the sender has not sent any weather packets the latest 10 day(s).
| Time | Temp. | Humidity | Pressure | Rain* | Wind** | Luminosity | Snow |
|---|---|---|---|---|---|---|---|
| 1788216073 | 18.89° C | 65% | 976 hPa | - | - | - | - |
| 1788145447 | 18.89° C | 100% | 969 hPa | - | - | - | - |
| 1788144240 | 18.33° C | 100% | 969 hPa | - | - | - | - |
| 1788143637 | 18.33° C | 100% | 970 hPa | - | - | - | - |
| 1788143033 | 18.89° C | 100% | 970 hPa | - | - | - | - |
| 1788139412 | 20° C | 91% | 970 hPa | - | - | - | - |
| 1788137600 | 20° C | 93% | 970 hPa | - | - | - | - |
| 1788136393 | 19.44° C | 93% | 971 hPa | - | - | - | - |
| 1788135789 | 20° C | 91% | 970 hPa | - | - | - | - |
| 1788135185 | 20.56° C | 89% | 970 hPa | - | - | - | - |
| 1788132167 | 20.56° C | 90% | 971 hPa | - | - | - | - |
| 1788131564 | 21.11° C | 86% | 971 hPa | - | - | - | - |
| 1788130960 | 21.11° C | 84% | 971 hPa | - | - | - | - |
| 1788123716 | 21.67° C | 78% | 971 hPa | - | - | - | - |
| 1788121906 | 22.22° C | 84% | 971 hPa | - | - | - | - |
| 1788121302 | 22.78° C | 80% | 971 hPa | - | - | - | - |
| 1788120698 | 22.78° C | 78% | 971 hPa | - | - | - | - |
| 1788120103 | 23.33° C | 75% | 971 hPa | - | - | - | - |
| 1788119491 | 23.33° C | 70% | 971 hPa | - | - | - | - |
| 1788118887 | 23.89° C | 67% | 971 hPa | - | - | - | - |
| 1788112851 | 26.11° C | 56% | 970 hPa | - | - | - | - |
| 1788109833 | 27.22° C | 48% | 970 hPa | - | - | - | - |
| 1788105607 | 28.33° C | 44% | 970 hPa | - | - | - | - |
| 1788097156 | 28.89° C | 45% | 971 hPa | - | - | - | - |
| 1788092931 | 28.33° C | 46% | 971 hPa | - | - | - | - |
* Rain since midnight (hover to see other rain measurements)
** Current wind speed in m/s (hover to see current wind gust speed)